Location: Proctor
(47.8934°N, 114.3048°W)
Time: 02:16:54
(UTC+00:00)

S-56A Canister/Altair - All Passes

Search period start: 13 June 2024 00:00
Search period end: 23 June 2024 00:00
Orbit: 637 x 2489 km, 38.9° (Epoch: 12 June)

Date Brightness Start Highest point End Pass type
(mag) Time Alt. Az. Time Alt. Az. Time Alt. Az.
13 Jun - 04:43:09 10° SSE 04:49:25 16° SE 04:56:32 10° E visible
13 Jun - 06:41:27 10° SSW 06:52:30 40° SSE 07:05:46 10° E visible
13 Jun - 08:44:21 10° WSW 08:57:33 58° S 09:12:01 10° E visible
13 Jun - 10:49:14 10° W 11:03:23 55° SSW 11:16:51 10° ESE visible
13 Jun - 12:55:35 10° W 13:08:12 35° SW 13:19:13 10° SSE daylight
13 Jun - 15:07:32 10° WSW 15:11:00 11° WSW 15:14:17 10° SW daylight
14 Jun - 04:11:28 10° SSE 04:15:45 13° SE 04:20:26 10° ESE visible
14 Jun - 06:08:07 10° SSW 06:18:24 37° SE 06:31:06 10° E visible
14 Jun - 08:10:30 10° WSW 08:23:10 57° SSE 08:37:40 10° E visible
14 Jun - 10:15:02 10° W 10:28:58 57° S 10:42:52 10° ESE visible
14 Jun - 12:21:01 10° W 12:34:04 38° SSW 12:45:48 10° SSE daylight
14 Jun - 14:30:48 10° W 14:37:15 14° SW 14:43:12 10° SSW daylight
15 Jun - 05:34:53 10° SSW 05:44:25 33° SE 05:56:21 10° E visible
15 Jun - 07:36:45 10° WSW 07:48:49 55° SSE 08:03:15 10° E visible
15 Jun - 09:40:56 10° W 09:54:31 58° S 10:08:48 10° ESE visible
15 Jun - 11:46:33 10° W 11:59:51 41° SSW 12:12:14 10° SSE daylight
15 Jun - 13:55:08 10° W 14:03:26 18° SW 14:11:02 10° SSW daylight
16 Jun - 05:01:50 10° SSW 05:10:31 29° SE 05:21:30 10° E visible
16 Jun - 07:03:07 10° SW 07:14:32 52° SSE 07:28:44 10° E visible
16 Jun - 09:06:56 10° W 09:20:05 59° S 09:34:36 10° ESE visible
16 Jun - 11:12:12 10° W 11:25:34 44° SSW 11:38:32 10° SE daylight
16 Jun - 13:19:54 10° W 13:29:31 21° SW 13:38:24 10° S daylight
17 Jun - 04:28:56 10° S 04:36:43 25° SE 04:46:32 10° E visible
17 Jun - 06:29:35 10° SW 06:40:20 49° SSE 06:54:09 10° E visible
17 Jun - 08:33:02 10° WSW 08:45:40 59° S 09:00:18 10° ESE visible
17 Jun - 10:37:57 10° W 10:51:15 47° SSW 11:04:42 10° SE visible
17 Jun - 12:44:57 10° W 12:55:31 24° SW 13:05:27 10° S daylight
18 Jun - 03:56:14 10° S 04:03:01 21° SE 04:11:25 10° E daylight
18 Jun - 05:56:09 10° SW 06:06:13 46° SSE 06:19:31 10° E visible
18 Jun - 07:59:13 10° WSW 08:11:17 59° S 08:25:54 10° ESE visible
18 Jun - 10:03:48 10° W 10:16:54 49° SSW 10:30:45 10° SE visible
18 Jun - 12:10:13 10° W 12:21:27 27° SW 12:32:16 10° S daylight
19 Jun - 03:23:49 10° SSE 03:29:24 17° SE 03:36:06 10° E daylight
19 Jun - 05:22:49 10° SW 05:32:12 42° SSE 05:44:49 10° E visible
19 Jun - 07:25:29 10° WSW 07:36:57 58° S 07:51:26 10° ESE visible
19 Jun - 09:29:46 10° W 09:42:32 51° SSW 09:56:40 10° SE visible
19 Jun - 11:35:40 10° W 11:47:20 30° SW 11:58:54 10° SSE daylight
20 Jun - 02:51:56 10° SSE 02:55:52 13° SE 03:00:21 10° ESE daylight
20 Jun - 04:49:36 10° SSW 04:58:16 38° SSE 05:10:04 10° E visible
20 Jun - 06:51:52 10° WSW 07:02:42 57° S 07:16:53 10° E visible
20 Jun - 08:55:50 10° W 09:08:09 53° SSW 09:22:29 10° SE visible
20 Jun - 11:01:17 10° W 11:13:09 33° SW 11:25:21 10° SSE daylight
20 Jun - 13:12:59 10° WSW 13:16:33 11° SW 13:20:04 10° SW daylight
21 Jun - 04:16:29 10° SSW 04:24:27 34° SE 04:35:17 10° E visible
21 Jun - 06:18:19 10° WSW 06:28:30 55° S 06:42:18 10° E visible
21 Jun - 08:21:59 10° W 08:33:49 54° SSW 08:48:11 10° ESE visible
21 Jun - 10:27:01 10° W 10:38:56 36° SSW 10:51:38 10° SSE visible
21 Jun - 12:36:26 10° WSW 12:42:38 14° SW 12:48:49 10° SSW daylight
22 Jun - 03:43:30 10° SSW 03:50:43 30° SE 04:00:28 10° E daylight
22 Jun - 05:44:52 10° WSW 05:54:24 52° SSE 06:07:39 10° E visible
22 Jun - 07:48:13 10° W 07:59:30 55° S 08:13:48 10° ESE visible
22 Jun - 09:52:54 10° W 10:04:41 38° SSW 10:17:47 10° SSE visible
22 Jun - 12:00:58 10° W 12:08:41 16° SW 12:16:28 10° SSW daylight
